Bangkok, Thailand

9:02 AM ICT on February 26, 2017 (GMT +0700)
Bangkok International

Weather History for VTBD - October, 2011

Change the Weather History Date:

Wednesday, October 19, 2011

  Actual Average Record
Temperature  
Mean Temperature 84 °F -  
Max Temperature 90 °F 88 °F 94 °F (2012)
Min Temperature 78 °F 75 °F 73 °F (2008)
Cooling Degree Days 19    
Growing Degree Days 34 (Base 50)    
Moisture  
Dew Point 72 °F    
Average Humidity 67    
Maximum Humidity 84    
Minimum Humidity 47    
Precipitation  
Precipitation 0.00 in 0.12 in - ()
Sea Level Pressure  
Sea Level Pressure 29.82 in    
Wind  
Wind Speed 5 mph ()    
Max Wind Speed 9 mph    
Max Gust Speed -    
Visibility 6.1 miles    
Events      
Averages and records for this station are not official NWS values.
T = Trace of Precipitation, MM = Missing Value Source: Averaged Metar Reports

Daily Weather History Graph

Daily Weather History Graph

Search for Another Location

Airport or City:

Trip Planner

Search our weather history database for the weather conditions in past years. The results will help you decide how hot, cold, wet, or windy it might be!

Date:

Astronomy

Oct. 19, 2011 Rise Set
Actual Time 6:09 AM ICT 5:56 PM ICT
Civil Twilight 5:47 AM ICT 6:17 PM ICT
Nautical Twilight 5:22 AM ICT 6:42 PM ICT
Astronomical Twilight 4:57 AM ICT 7:07 PM ICT
Moon 11:33 PM ICT (10/19) 11:49 AM ICT (10/19)
Length of Visible Light 12h 30m
Length of Day
11h 47m
Waning Gibbous, 60% of the Moon is Illuminated
Oct 19
Waning Gibbous
Oct 20
Last Quarter
Oct 27
New
Nov 2
First Quarter
Nov 11
Full

Hourly Weather History & Observations

Time (ICT) Temp. Heat Index Dew Point Humidity Pressure Visibility Wind Dir Wind Speed Gust Speed Precip Events Conditions
12:00 AM 80.6 °F 85.4 °F 73.4 °F 79% 29.89 in 6.2 mi North 6.9 mph - N/A   Mostly Cloudy
12:30 AM 80.6 °F 84.6 °F 71.6 °F 74% 29.86 in 6.2 mi NNE 6.9 mph - N/A   Mostly Cloudy
1:00 AM 80 °F - 72 °F 70% 29.86 in 6 mi NNE 9.2 mph - -   Scattered Clouds
1:00 AM 80.6 °F 84.6 °F 71.6 °F 74% 29.86 in 6.2 mi NNE 9.2 mph - N/A   Mostly Cloudy
1:30 AM 80.6 °F 84.6 °F 71.6 °F 74% 29.86 in 6.2 mi NNE 6.9 mph - N/A   Mostly Cloudy
2:00 AM 80.6 °F 84.6 °F 71.6 °F 74% 29.83 in 6.2 mi North 9.2 mph - N/A   Mostly Cloudy
2:30 AM 80.6 °F 84.6 °F 71.6 °F 74% 29.83 in 6.2 mi NNE 6.9 mph - N/A   Mostly Cloudy
3:00 AM 80.6 °F 84.6 °F 71.6 °F 74% 29.83 in 6.2 mi NNE 6.9 mph - N/A   Mostly Cloudy
3:30 AM 78.8 °F - 71.6 °F 78% 29.83 in 6.2 mi North 4.6 mph - N/A   Mostly Cloudy
4:00 AM 78.8 °F - 71.6 °F 78% 29.80 in 6.2 mi NNE 6.9 mph - N/A   Mostly Cloudy
4:30 AM 78.8 °F - 71.6 °F 78% 29.80 in 6.2 mi NNE 6.9 mph - N/A   Mostly Cloudy
5:00 AM 78.8 °F - 71.6 °F 78% 29.80 in 6.2 mi NE 6.9 mph - N/A   Mostly Cloudy
5:30 AM 78.8 °F - 71.6 °F 78% 29.83 in 6.2 mi North 5.8 mph - N/A   Mostly Cloudy
6:00 AM 78.8 °F - 69.8 °F 74% 29.83 in 6.2 mi North 5.8 mph - N/A   Mostly Cloudy
6:30 AM 78.8 °F - 69.8 °F 74% 29.83 in 6.2 mi North 5.8 mph - N/A   Mostly Cloudy
7:00 AM 79 °F - 71 °F 69% 29.86 in 6 mi NNE 4.6 mph - -   Scattered Clouds
7:00 AM 78.8 °F - 69.8 °F 74% 29.86 in 6.2 mi NNE 4.6 mph - N/A   Mostly Cloudy
7:30 AM 80.6 °F 84.6 °F 71.6 °F 74% 29.86 in 6.2 mi NNE 5.8 mph - N/A   Mostly Cloudy
8:00 AM 80.6 °F 84.6 °F 71.6 °F 74% 29.86 in 6.2 mi North 6.9 mph - N/A   Mostly Cloudy
8:30 AM 82.4 °F 87.2 °F 71.6 °F 70% 29.86 in 6.2 mi NNE 6.9 mph - N/A   Mostly Cloudy
9:00 AM 84.2 °F 89.6 °F 71.6 °F 66% 29.86 in 6.2 mi NNE 3.5 mph - N/A   Scattered Clouds
9:30 AM 84.2 °F 89.6 °F 71.6 °F 66% 29.86 in 6.2 mi NNE 4.6 mph - N/A   Scattered Clouds
10:00 AM 86.0 °F 91.8 °F 71.6 °F 62% 29.86 in 6.2 mi North 4.6 mph - N/A   Scattered Clouds
10:30 AM 87.8 °F 93.8 °F 71.6 °F 58% 29.83 in 6.2 mi NW 3.5 mph - N/A   Scattered Clouds
11:00 AM 87.8 °F 93.8 °F 71.6 °F 58% 29.83 in 6.2 mi North 6.9 mph - N/A   Scattered Clouds
11:30 AM 87.8 °F 93.8 °F 71.6 °F 58% 29.80 in 6.2 mi NNW 4.6 mph - N/A   Scattered Clouds
12:00 PM 89.6 °F 98.2 °F 73.4 °F 59% 29.80 in 6.2 mi NE 2.3 mph - N/A   Scattered Clouds
12:30 PM 89.6 °F 96.2 °F 71.6 °F 55% 29.80 in 6.2 mi NNE 3.5 mph - N/A   Scattered Clouds
1:00 PM 89 °F - 71 °F 47% 29.78 in 6 mi NW 5.8 mph - -   Scattered Clouds
1:00 PM 89.6 °F 96.2 °F 71.6 °F 55% 29.77 in 6.2 mi NW 5.8 mph - N/A   Scattered Clouds
1:30 PM 91.4 °F 98.4 °F 71.6 °F 52% 29.77 in 6.2 mi NW 2.3 mph - N/A   Scattered Clouds
2:00 PM 89.6 °F 96.2 °F 71.6 °F 55% 29.77 in 6.2 mi NNE 4.6 mph - N/A   Scattered Clouds
2:30 PM 89.6 °F 96.2 °F 71.6 °F 55% 29.74 in 6.2 mi ENE 2.3 mph - N/A   Mostly Cloudy
3:00 PM 87.8 °F 92.6 °F 69.8 °F 55% 29.74 in 6.2 mi NNE 2.3 mph - N/A   Mostly Cloudy
3:30 PM 89.6 °F 96.2 °F 71.6 °F 55% 29.74 in 6.2 mi North 2.3 mph - N/A   Mostly Cloudy
4:00 PM 89.6 °F 96.2 °F 71.6 °F 55% 29.74 in 6.2 mi SE 2.3 mph - N/A   Mostly Cloudy
4:30 PM 89.6 °F 94.7 °F 69.8 °F 52% 29.74 in 6.2 mi East 8.1 mph - N/A   Mostly Cloudy
5:00 PM 89.6 °F 93.4 °F 68.0 °F 49% 29.74 in 5.6 mi ESE 4.6 mph - N/A   Mostly Cloudy
5:30 PM 87.8 °F 93.8 °F 71.6 °F 58% 29.77 in 5.6 mi WSW 8.1 mph - N/A   Mostly Cloudy
6:00 PM 87.8 °F 93.8 °F 71.6 °F 58% 29.77 in 5.6 mi West 3.5 mph - N/A   Mostly Cloudy
6:30 PM 86.0 °F 90.4 °F 69.8 °F 58% 29.77 in 5.6 mi WNW 4.6 mph - N/A   Mostly Cloudy
7:00 PM 86 °F - 71 °F 52% 29.82 in 6 mi WNW 5.8 mph - -   Haze
7:00 PM 86.0 °F 91.8 °F 71.6 °F 62% 29.80 in 5.6 mi WNW 5.8 mph - N/A   Mostly Cloudy
7:30 PM 86.0 °F 91.8 °F 71.6 °F 62% 29.83 in 6.2 mi WNW 4.6 mph - N/A   Mostly Cloudy
8:00 PM 82.4 °F 87.2 °F 71.6 °F 70% 29.83 in 6.2 mi North 5.8 mph - N/A   Mostly Cloudy
8:30 PM 82.4 °F 87.2 °F 71.6 °F 70% 29.83 in 6.2 mi NW 5.8 mph - N/A   Mostly Cloudy
9:00 PM 82.4 °F 87.2 °F 71.6 °F 70% 29.86 in 6.2 mi NW 4.6 mph - N/A   Mostly Cloudy
9:30 PM 82.4 °F 88.2 °F 73.4 °F 74% 29.86 in 6.2 mi NNE 3.5 mph - N/A   Mostly Cloudy
10:00 PM 80.6 °F 85.4 °F 73.4 °F 79% 29.83 in 6.2 mi NE 4.6 mph - N/A   Mostly Cloudy
10:30 PM 80.6 °F 85.4 °F 73.4 °F 79% 29.86 in 6.2 mi NE 4.6 mph - N/A   Mostly Cloudy
11:00 PM 80.6 °F 86.2 °F 75.2 °F 84% 29.86 in 6.2 mi NE 3.5 mph - N/A   Mostly Cloudy
11:30 PM 82.4 °F 89.5 °F 75.2 °F 79% 29.86 in 6.2 mi NNE 6.9 mph - N/A   Mostly Cloudy